owner,sensor,date,latitude,longitude,vertical_datum,direction_of_sea_water_velocity,sea_water_speed,upward_sea_water_velocity,qcFlag 
TABS,ioos:station:wmo:42044:1,2006-02-05T01:00:00Z,26.1914,-97.0507,2.0,349.6012248,9.251967358,-99999.0,'11133222,11111222,99999999' 
TABS,ioos:station:wmo:42044:1,2006-02-05T01:30:00Z,26.1914,-97.0507,2.0,354.7299915,9.580501031,-99999.0,'11133222,11111222,99999999' 
TABS,ioos:station:wmo:42044:1,2006-02-05T02:00:00Z,26.1914,-97.0507,2.0,357.5767426,10.16909534,-99999.0,'11111222,11111222,99999999' 
TABS,ioos:station:wmo:42044:1,2006-02-05T02:30:00Z,26.1914,-97.0507,2.0,8.215008839,8.608327364,-99999.0,'11133222,11111222,99999999' 
TABS,ioos:station:wmo:42044:1,2006-02-05T03:00:00Z,26.1914,-97.0507,2.0,354.302303,13.49668478,-99999.0,'11111222,11111222,99999999' 
TABS,ioos:station:wmo:42044:1,2006-02-05T03:30:00Z,26.1914,-97.0507,2.0,358.356597,13.9457377,-99999.0,'11111222,11111222,99999999' 
TABS,ioos:station:wmo:42044:1,2006-02-05T04:00:00Z,26.1914,-97.0507,2.0,2.532963974,12.67237941,-99999.0,'11111222,11111222,99999999' 
TABS,ioos:station:wmo:42044:1,2006-02-05T04:30:00Z,26.1914,-97.0507,2.0,7.332785807,15.7487936,-99999.0,'11111222,11111222,99999999' 
TABS,ioos:station:wmo:42044:1,2006-02-05T05:00:00Z,26.1914,-97.0507,2.0,351.003671,16.17903891,-99999.0,'11111222,11111222,99999999' 
TABS,ioos:station:wmo:42044:1,2006-02-05T05:30:00Z,26.1914,-97.0507,2.0,1.089031696,13.68247054,-99999.0,'11111222,11111222,99999999' 
TABS,ioos:station:wmo:42044:1,2006-02-05T06:00:00Z,26.1914,-97.0507,2.0,0.445294797,14.16042725,-99999.0,'11111222,11111222,99999999' 
TABS,ioos:station:wmo:42044:1,2006-02-05T06:30:00Z,26.1914,-97.0507,2.0,357.1628064,13.73684098,-99999.0,'11111222,11111222,99999999' 
TABS,ioos:station:wmo:42044:1,2006-02-05T07:00:00Z,26.1914,-97.0507,2.0,345.267128,16.75074924,-99999.0,'11111222,11111222,99999999' 
TABS,ioos:station:wmo:42044:1,2006-02-05T07:30:00Z,26.1914,-97.0507,2.0,357.5093443,18.86782711,-99999.0,'11111222,11111222,99999999' 
TABS,ioos:station:wmo:42044:1,2006-02-05T08:00:00Z,26.1914,-97.0507,2.0,339.1382474,16.87640365,-99999.0,'11111222,11111222,99999999' 
TABS,ioos:station:wmo:42044:1,2006-02-05T08:30:00Z,26.1914,-97.0507,2.0,352.9596327,18.51964632,-99999.0,'11111222,11111222,99999999' 
TABS,ioos:station:wmo:42044:1,2006-02-05T09:00:00Z,26.1914,-97.0507,2.0,354.8188066,19.93144501,-99999.0,'11111222,11111222,99999999' 
TABS,ioos:station:wmo:42044:1,2006-02-05T09:30:00Z,26.1914,-97.0507,2.0,356.3176737,20.86307743,-99999.0,'11111222,11111222,99999999' 
TABS,ioos:station:wmo:42044:1,2006-02-05T10:00:00Z,26.1914,-97.0507,2.0,334.9188985,19.86294288,-99999.0,'11111222,11111222,99999999' 
TABS,ioos:station:wmo:42044:1,2006-02-05T10:30:00Z,26.1914,-97.0507,2.0,353.8943825,21.05946818,-99999.0,'11111222,11111222,99999999' 
TABS,ioos:station:wmo:42044:1,2006-02-05T11:00:00Z,26.1914,-97.0507,2.0,342.252757,23.19381383,-99999.0,'11111222,11111222,99999999' 
TABS,ioos:station:wmo:42044:1,2006-02-05T11:30:00Z,26.1914,-97.0507,2.0,347.7673696,22.88972258,-99999.0,'11111222,11111222,99999999' 
TABS,ioos:station:wmo:42044:1,2006-02-05T12:00:00Z,26.1914,-97.0507,2.0,345.5299502,21.4504662,-99999.0,'11111222,11111222,99999999' 
TABS,ioos:station:wmo:42044:1,2006-02-05T12:30:00Z,26.1914,-97.0507,2.0,346.9365027,28.5796641,-99999.0,'11111222,11111222,99999999' 
TABS,ioos:station:wmo:42044:1,2006-02-05T13:00:00Z,26.1914,-97.0507,2.0,356.3185166,24.76110256,-99999.0,'11111222,11111222,99999999' 
TABS,ioos:station:wmo:42044:1,2006-02-05T13:30:00Z,26.1914,-97.0507,2.0,355.740936,27.73660397,-99999.0,'11111222,11111222,99999999' 
TABS,ioos:station:wmo:42044:1,2006-02-05T14:00:00Z,26.1914,-97.0507,2.0,359.3589506,25.91162287,-99999.0,'11111222,11144222,99999999' 
TABS,ioos:station:wmo:42044:1,2006-02-05T14:30:00Z,26.1914,-97.0507,2.0,357.0921911,27.59553587,-99999.0,'11111222,11111222,99999999' 
TABS,ioos:station:wmo:42044:1,2006-02-05T15:00:00Z,26.1914,-97.0507,2.0,358.0394215,25.13471703,-99999.0,'11111222,11111222,99999999' 
TABS,ioos:station:wmo:42044:1,2006-02-05T15:30:00Z,26.1914,-97.0507,2.0,349.7009636,27.574296,-99999.0,'11111222,11111222,99999999' 
TABS,ioos:station:wmo:42044:1,2006-02-05T16:00:00Z,26.1914,-97.0507,2.0,359.262539,27.9623175,-99999.0,'11111222,11144222,99999999' 
TABS,ioos:station:wmo:42044:1,2006-02-05T16:30:00Z,26.1914,-97.0507,2.0,359.5689611,27.90079031,-99999.0,'11111222,11144222,99999999' 
TABS,ioos:station:wmo:42044:1,2006-02-05T17:00:00Z,26.1914,-97.0507,2.0,359.4643818,28.87126253,-99999.0,'11111222,11144222,99999999' 
TABS,ioos:station:wmo:42044:1,2006-02-05T17:30:00Z,26.1914,-97.0507,2.0,356.5118213,30.07572609,-99999.0,'11111222,11111222,99999999' 
TABS,ioos:station:wmo:42044:1,2006-02-05T18:00:00Z,26.1914,-97.0507,2.0,4.927961726,30.15144607,-99999.0,'11111222,11111222,99999999' 
TABS,ioos:station:wmo:42044:1,2006-02-05T18:30:00Z,26.1914,-97.0507,2.0,3.945984958,32.98819486,-99999.0,'11111222,11111222,99999999' 
TABS,ioos:station:wmo:42044:1,2006-02-05T19:00:00Z,26.1914,-97.0507,2.0,0.274088131,31.38035851,-99999.0,'11111222,11111222,99999999' 
TABS,ioos:station:wmo:42044:1,2006-02-05T19:30:00Z,26.1914,-97.0507,2.0,1.376126837,29.5685255,-99999.0,'11111222,11111222,99999999' 
TABS,ioos:station:wmo:42044:1,2006-02-05T20:00:00Z,26.1914,-97.0507,2.0,359.7248355,33.2903845,-99999.0,'11111222,11144222,99999999' 
TABS,ioos:station:wmo:42044:1,2006-02-05T20:30:00Z,26.1914,-97.0507,2.0,1.104036216,36.33674311,-99999.0,'11111222,11111222,99999999' 
TABS,ioos:station:wmo:42044:1,2006-02-05T21:00:00Z,26.1914,-97.0507,2.0,356.909384,33.56883227,-99999.0,'11111222,11111222,99999999' 
TABS,ioos:station:wmo:42044:1,2006-02-05T21:30:00Z,26.1914,-97.0507,2.0,347.1704138,31.79376668,-99999.0,'11111222,11111222,99999999' 
TABS,ioos:station:wmo:42044:1,2006-02-05T22:00:00Z,26.1914,-97.0507,2.0,357.2629294,34.75966053,-99999.0,'11111222,11111222,99999999' 
TABS,ioos:station:wmo:42044:1,2006-02-05T22:30:00Z,26.1914,-97.0507,2.0,0.819427148,32.17328861,-99999.0,'11111222,11111222,99999999' 
TABS,ioos:station:wmo:42044:1,2006-02-05T23:00:00Z,26.1914,-97.0507,2.0,1.505800714,32.7313,-99999.0,'11111222,11111222,99999999' 
TABS,ioos:station:wmo:42044:1,2006-02-05T23:30:00Z,26.1914,-97.0507,2.0,351.2791506,31.26143951,-99999.0,'11111222,11111222,99999999' 
TABS,ioos:station:wmo:42044:1,2006-02-06T00:00:00Z,26.1914,-97.0507,2.0,353.324411,31.48346391,-99999.0,'11111222,11111222,99999999' 
TABS,ioos:station:wmo:42044:1,2006-02-06T00:30:00Z,26.1914,-97.0507,2.0,3.690457231,32.62765085,-99999.0,'11111222,11111222,99999999' 
TABS,ioos:station:wmo:42044:1,2006-02-06T01:00:00Z,26.1914,-97.0507,2.0,4.538847245,31.08748462,-99999.0,'11111222,11111222,99999999' 
TABS,ioos:station:wmo:42044:1,2006-02-06T01:30:00Z,26.1914,-97.0507,2.0,359.1195611,35.13415005,-99999.0,'11111222,11144222,99999999' 
TABS,ioos:station:wmo:42044:1,2006-02-06T02:00:00Z,26.1914,-97.0507,2.0,355.1238081,31.64454139,-99999.0,'11111222,11111222,99999999' 
TABS,ioos:station:wmo:42044:1,2006-02-06T02:30:00Z,26.1914,-97.0507,2.0,357.2668168,34.5993656,-99999.0,'11111222,11111222,99999999' 
TABS,ioos:station:wmo:42044:1,2006-02-06T03:00:00Z,26.1914,-97.0507,2.0,4.878185868,32.45755998,-99999.0,'11111222,11111222,99999999' 
TABS,ioos:station:wmo:42044:1,2006-02-06T03:30:00Z,26.1914,-97.0507,2.0,7.653277416,27.85814423,-99999.0,'11111222,11111222,99999999' 
TABS,ioos:station:wmo:42044:1,2006-02-06T04:00:00Z,26.1914,-97.0507,2.0,359.8903436,31.29005753,-99999.0,'11111222,11144222,99999999' 
TABS,ioos:station:wmo:42044:1,2006-02-06T04:30:00Z,26.1914,-97.0507,2.0,4.638649091,25.84464548,-99999.0,'11111222,11111222,99999999' 
TABS,ioos:station:wmo:42044:1,2006-02-06T05:00:00Z,26.1914,-97.0507,2.0,7.017989858,33.80324541,-99999.0,'11111222,11111222,99999999' 
TABS,ioos:station:wmo:42044:1,2006-02-06T05:30:00Z,26.1914,-97.0507,2.0,12.07655441,28.29620646,-99999.0,'11111222,11111222,99999999' 
TABS,ioos:station:wmo:42044:1,2006-02-06T06:00:00Z,26.1914,-97.0507,2.0,12.77275151,28.04393874,-99999.0,'11111222,11111222,99999999' 
TABS,ioos:station:wmo:42044:1,2006-02-06T06:30:00Z,26.1914,-97.0507,2.0,356.2851873,28.86064622,-99999.0,'11111222,11111222,99999999' 
TABS,ioos:station:wmo:42044:1,2006-02-06T07:00:00Z,26.1914,-97.0507,2.0,9.451693918,26.12464354,-99999.0,'11111222,11111222,99999999' 
TABS,ioos:station:wmo:42044:1,2006-02-06T07:30:00Z,26.1914,-97.0507,2.0,11.16307182,25.98155115,-99999.0,'11111222,11111222,99999999' 
TABS,ioos:station:wmo:42044:1,2006-02-06T08:00:00Z,26.1914,-97.0507,2.0,3.718365648,20.66349438,-99999.0,'11111222,11111222,99999999' 
TABS,ioos:station:wmo:42044:1,2006-02-06T08:30:00Z,26.1914,-97.0507,2.0,14.78039456,21.48076582,-99999.0,'11111222,11111222,99999999' 
TABS,ioos:station:wmo:42044:1,2006-02-06T09:00:00Z,26.1914,-97.0507,2.0,13.90685831,19.30588511,-99999.0,'11111222,11111222,99999999' 
TABS,ioos:station:wmo:42044:1,2006-02-06T09:30:00Z,26.1914,-97.0507,2.0,18.00626456,21.12460651,-99999.0,'11111222,11111222,99999999' 
TABS,ioos:station:wmo:42044:1,2006-02-06T10:00:00Z,26.1914,-97.0507,2.0,9.199312272,21.83077186,-99999.0,'11111222,11111222,99999999' 
TABS,ioos:station:wmo:42044:1,2006-02-06T10:30:00Z,26.1914,-97.0507,2.0,4.552070573,18.64882034,-99999.0,'11111222,11111222,99999999' 
TABS,ioos:station:wmo:42044:1,2006-02-06T11:00:00Z,26.1914,-97.0507,2.0,8.663642801,15.80027848,-99999.0,'11111222,11111222,99999999' 
TABS,ioos:station:wmo:42044:1,2006-02-06T11:30:00Z,26.1914,-97.0507,2.0,353.6685954,14.78015561,-99999.0,'11111222,11111222,99999999' 
TABS,ioos:station:wmo:42044:1,2006-02-06T12:00:00Z,26.1914,-97.0507,2.0,18.45320763,10.01493385,-99999.0,'11111222,11111222,99999999' 
TABS,ioos:station:wmo:42044:1,2006-02-06T12:30:00Z,26.1914,-97.0507,2.0,10.28897463,12.76526537,-99999.0,'11111222,11111222,99999999' 
TABS,ioos:station:wmo:42044:1,2006-02-06T13:00:00Z,26.1914,-97.0507,2.0,9.880959053,11.48028745,-99999.0,'11111222,11111222,99999999' 
TABS,ioos:station:wmo:42044:1,2006-02-06T13:30:00Z,26.1914,-97.0507,2.0,23.3557207,9.585405573,-99999.0,'11133222,11111222,99999999' 
TABS,ioos:station:wmo:42044:1,2006-02-06T14:00:00Z,26.1914,-97.0507,2.0,2.279065807,7.796165724,-99999.0,'11133222,11111222,99999999' 
TABS,ioos:station:wmo:42044:1,2006-02-06T14:30:00Z,26.1914,-97.0507,2.0,12.40914159,7.259593653,-99999.0,'11133222,11111222,99999999' 
TABS,ioos:station:wmo:42044:1,2006-02-06T15:00:00Z,26.1914,-97.0507,2.0,34.52315308,6.105120801,-99999.0,'11133222,11111222,99999999' 
TABS,ioos:station:wmo:42044:1,2006-02-06T15:30:00Z,26.1914,-97.0507,2.0,70.54887012,5.705646326,-99999.0,'11133222,11111222,99999999' 
TABS,ioos:station:wmo:42044:1,2006-02-06T16:00:00Z,26.1914,-97.0507,2.0,69.41994926,2.787920372,-99999.0,'11133222,11111222,99999999' 
TABS,ioos:station:wmo:42044:1,2006-02-06T16:30:00Z,26.1914,-97.0507,2.0,64.7133627,3.207319753,-99999.0,'11133222,11111222,99999999' 
TABS,ioos:station:wmo:42044:1,2006-02-06T17:00:00Z,26.1914,-97.0507,2.0,189.8535731,4.090342284,-99999.0,'11133222,11111222,99999999' 
TABS,ioos:station:wmo:42044:1,2006-02-06T17:30:00Z,26.1914,-97.0507,2.0,178.8409328,11.37232606,-99999.0,'11111222,11111222,99999999' 
TABS,ioos:station:wmo:42044:1,2006-02-06T18:00:00Z,26.1914,-97.0507,2.0,183.1417433,12.5889237,-99999.0,'11111222,11111222,99999999' 
TABS,ioos:station:wmo:42044:1,2006-02-06T18:30:00Z,26.1914,-97.0507,2.0,184.4438853,17.42238216,-99999.0,'11111222,11111222,99999999' 
TABS,ioos:station:wmo:42044:1,2006-02-06T19:00:00Z,26.1914,-97.0507,2.0,188.5638864,16.98943495,-99999.0,'11111222,11111222,99999999' 
TABS,ioos:station:wmo:42044:1,2006-02-06T19:30:00Z,26.1914,-97.0507,2.0,178.419147,16.67634552,-99999.0,'11111222,11111222,99999999' 
TABS,ioos:station:wmo:42044:1,2006-02-06T20:00:00Z,26.1914,-97.0507,2.0,179.5262826,19.36066115,-99999.0,'11111222,11111222,99999999' 
TABS,ioos:station:wmo:42044:1,2006-02-06T20:30:00Z,26.1914,-97.0507,2.0,183.2884162,21.61559622,-99999.0,'11111222,11111222,99999999' 
TABS,ioos:station:wmo:42044:1,2006-02-06T21:00:00Z,26.1914,-97.0507,2.0,179.7140929,22.06027425,-99999.0,'11111222,11111222,99999999' 
TABS,ioos:station:wmo:42044:1,2006-02-06T21:30:00Z,26.1914,-97.0507,2.0,171.7378913,14.75311493,-99999.0,'11111222,11111222,99999999' 
TABS,ioos:station:wmo:42044:1,2006-02-06T22:00:00Z,26.1914,-97.0507,2.0,180.436676,18.36053376,-99999.0,'11111222,11111222,99999999' 
TABS,ioos:station:wmo:42044:1,2006-02-06T22:30:00Z,26.1914,-97.0507,2.0,176.1131571,26.26039604,-99999.0,'11111222,11111222,99999999' 
TABS,ioos:station:wmo:42044:1,2006-02-06T23:00:00Z,26.1914,-97.0507,2.0,178.8882916,24.74465599,-99999.0,'11111222,11111222,99999999' 
TABS,ioos:station:wmo:42044:1,2006-02-06T23:30:00Z,26.1914,-97.0507,2.0,186.2082923,29.31191737,-99999.0,'11111222,11111222,99999999' 
TABS,ioos:station:wmo:42044:1,2006-02-07T00:00:00Z,26.1914,-97.0507,2.0,173.7890569,28.83926663,-99999.0,'11111222,11111222,99999999' 
TABS,ioos:station:wmo:42044:1,2006-02-07T00:30:00Z,26.1914,-97.0507,2.0,177.3086488,27.9007706,-99999.0,'11111222,11111222,99999999' 
TABS,ioos:station:wmo:42044:1,2006-02-07T01:00:00Z,26.1914,-97.0507,2.0,175.2066508,30.63714249,-99999.0,'11111222,11111222,99999999' 
TABS,ioos:station:wmo:42044:1,2006-02-07T01:30:00Z,26.1914,-97.0507,2.0,175.2119056,31.38953329,-99999.0,'11111222,11111222,99999999' 
TABS,ioos:station:wmo:42044:1,2006-02-07T02:00:00Z,26.1914,-97.0507,2.0,178.3758634,31.05247172,-99999.0,'11111222,11111222,99999999' 
TABS,ioos:station:wmo:42044:1,2006-02-07T02:30:00Z,26.1914,-97.0507,2.0,170.5435464,31.10264458,-99999.0,'11111222,11111222,99999999' 
TABS,ioos:station:wmo:42044:1,2006-02-07T03:00:00Z,26.1914,-97.0507,2.0,189.2676041,24.21611034,-99999.0,'11111222,11111222,99999999' 
TABS,ioos:station:wmo:42044:1,2006-02-07T03:30:00Z,26.1914,-97.0507,2.0,174.6202795,28.58590562,-99999.0,'11111222,11111222,99999999' 
TABS,ioos:station:wmo:42044:1,2006-02-07T04:00:00Z,26.1914,-97.0507,2.0,178.8476746,28.84583159,-99999.0,'11111222,11111222,99999999' 
TABS,ioos:station:wmo:42044:1,2006-02-07T04:30:00Z,26.1914,-97.0507,2.0,179.9997895,27.37,-99999.0,'11111222,11111222,99999999' 
TABS,ioos:station:wmo:42044:1,2006-02-07T05:00:00Z,26.1914,-97.0507,2.0,174.2047521,25.65109159,-99999.0,'11111222,11111222,99999999' 
TABS,ioos:station:wmo:42044:1,2006-02-07T05:30:00Z,26.1914,-97.0507,2.0,172.7544675,28.94108844,-99999.0,'11111222,11111222,99999999' 
TABS,ioos:station:wmo:42044:1,2006-02-07T06:00:00Z,26.1914,-97.0507,2.0,178.836586,29.55609074,-99999.0,'11111222,11111222,99999999' 
TABS,ioos:station:wmo:42044:1,2006-02-07T06:30:00Z,26.1914,-97.0507,2.0,179.8570097,28.09008722,-99999.0,'11111222,11111222,99999999' 
TABS,ioos:station:wmo:42044:1,2006-02-07T07:00:00Z,26.1914,-97.0507,2.0,169.0610301,30.88109454,-99999.0,'11111222,11111222,99999999' 
TABS,ioos:station:wmo:42044:1,2006-02-07T07:30:00Z,26.1914,-97.0507,2.0,170.277311,28.6007867,-99999.0,'11111222,11111222,99999999' 
TABS,ioos:station:wmo:42044:1,2006-02-07T08:00:00Z,26.1914,-97.0507,2.0,170.5956904,29.13151558,-99999.0,'11111222,11111222,99999999' 
TABS,ioos:station:wmo:42044:1,2006-02-07T08:30:00Z,26.1914,-97.0507,2.0,180.3332061,32.65055283,-99999.0,'11111222,11111222,99999999' 
TABS,ioos:station:wmo:42044:1,2006-02-07T09:00:00Z,26.1914,-97.0507,2.0,167.6513325,27.91583422,-99999.0,'11111222,11111222,99999999' 
TABS,ioos:station:wmo:42044:1,2006-02-07T09:30:00Z,26.1914,-97.0507,2.0,180.2953429,27.14036109,-99999.0,'11111222,11111222,99999999' 
TABS,ioos:station:wmo:42044:1,2006-02-07T10:00:00Z,26.1914,-97.0507,2.0,171.1712585,32.25212241,-99999.0,'11111222,11111222,99999999' 
TABS,ioos:station:wmo:42044:1,2006-02-07T10:30:00Z,26.1914,-97.0507,2.0,176.2509568,29.2125076,-99999.0,'11111222,11111222,99999999' 
TABS,ioos:station:wmo:42044:1,2006-02-07T11:00:00Z,26.1914,-97.0507,2.0,182.4878361,33.1712707,-99999.0,'11111222,11111222,99999999' 
TABS,ioos:station:wmo:42044:1,2006-02-07T11:30:00Z,26.1914,-97.0507,2.0,181.7068907,31.5540045,-99999.0,'11111222,11111222,99999999' 
TABS,ioos:station:wmo:42044:1,2006-02-07T12:00:00Z,26.1914,-97.0507,2.0,182.2388099,28.41169126,-99999.0,'11111222,11111222,99999999' 
TABS,ioos:station:wmo:42044:1,2006-02-07T12:30:00Z,26.1914,-97.0507,2.0,180.3894103,27.94064602,-99999.0,'11111222,11111222,99999999' 
TABS,ioos:station:wmo:42044:1,2006-02-07T13:00:00Z,26.1914,-97.0507,2.0,179.6936169,28.07040078,-99999.0,'11111222,11111222,99999999' 
TABS,ioos:station:wmo:42044:1,2006-02-07T13:30:00Z,26.1914,-97.0507,2.0,178.9533164,27.92465756,-99999.0,'11111222,11111222,99999999' 
TABS,ioos:station:wmo:42044:1,2006-02-07T14:00:00Z,26.1914,-97.0507,2.0,174.8467467,28.83654799,-99999.0,'11111222,11111222,99999999' 
TABS,ioos:station:wmo:42044:1,2006-02-07T14:30:00Z,26.1914,-97.0507,2.0,184.4876309,27.60463729,-99999.0,'11111222,11111222,99999999' 
TABS,ioos:station:wmo:42044:1,2006-02-07T15:00:00Z,26.1914,-97.0507,2.0,171.0212996,25.31012643,-99999.0,'11111222,11111222,99999999' 
TABS,ioos:station:wmo:42044:1,2006-02-07T15:30:00Z,26.1914,-97.0507,2.0,186.7897461,27.15042725,-99999.0,'11111222,11111222,99999999' 
TABS,ioos:station:wmo:42044:1,2006-02-07T16:00:00Z,26.1914,-97.0507,2.0,182.5572005,24.20410709,-99999.0,'11111222,11111222,99999999' 
TABS,ioos:station:wmo:42044:1,2006-02-07T16:30:00Z,26.1914,-97.0507,2.0,181.7726602,25.21206854,-99999.0,'11111222,11111222,99999999' 
TABS,ioos:station:wmo:42044:1,2006-02-07T17:00:00Z,26.1914,-97.0507,2.0,185.3220836,23.93318408,-99999.0,'11111222,11111222,99999999' 
TABS,ioos:station:wmo:42044:1,2006-02-07T17:30:00Z,26.1914,-97.0507,2.0,189.4728804,26.18711515,-99999.0,'11111222,11111222,99999999' 
TABS,ioos:station:wmo:42044:1,2006-02-07T18:00:00Z,26.1914,-97.0507,2.0,182.756238,20.79405925,-99999.0,'11111222,11111222,99999999' 
TABS,ioos:station:wmo:42044:1,2006-02-07T18:30:00Z,26.1914,-97.0507,2.0,185.63681,24.0261878,-99999.0,'11111222,11111222,99999999' 
TABS,ioos:station:wmo:42044:1,2006-02-07T19:00:00Z,26.1914,-97.0507,2.0,190.3159419,22.61559197,-99999.0,'11111222,11111222,99999999' 
TABS,ioos:station:wmo:42044:1,2006-02-07T19:30:00Z,26.1914,-97.0507,2.0,186.8933597,21.49539486,-99999.0,'11111222,11111222,99999999' 
TABS,ioos:station:wmo:42044:1,2006-02-07T20:00:00Z,26.1914,-97.0507,2.0,178.0350147,17.50028857,-99999.0,'11111222,11111222,99999999' 
TABS,ioos:station:wmo:42044:1,2006-02-07T20:30:00Z,26.1914,-97.0507,2.0,183.4030343,19.2038668,-99999.0,'11111222,11111222,99999999' 
TABS,ioos:station:wmo:42044:1,2006-02-07T21:00:00Z,26.1914,-97.0507,2.0,188.4125644,17.77122393,-99999.0,'11111222,11111222,99999999' 
TABS,ioos:station:wmo:42044:1,2006-02-07T21:30:00Z,26.1914,-97.0507,2.0,190.118118,15.93788254,-99999.0,'11111222,11111222,99999999' 
TABS,ioos:station:wmo:42044:1,2006-02-07T22:00:00Z,26.1914,-97.0507,2.0,195.0292127,15.81084754,-99999.0,'11111222,11111222,99999999' 
TABS,ioos:station:wmo:42044:1,2006-02-07T22:30:00Z,26.1914,-97.0507,2.0,189.4763832,13.17986722,-99999.0,'11111222,11111222,99999999' 
TABS,ioos:station:wmo:42044:1,2006-02-07T23:00:00Z,26.1914,-97.0507,2.0,195.3014785,11.86045952,-99999.0,'11111222,11111222,99999999' 
TABS,ioos:station:wmo:42044:1,2006-02-07T23:30:00Z,26.1914,-97.0507,2.0,194.5647973,12.08849039,-99999.0,'11111222,11111222,99999999' 
TABS,ioos:station:wmo:42044:1,2006-02-08T00:00:00Z,26.1914,-97.0507,2.0,177.2812405,10.54186416,-99999.0,'11111222,11111222,99999999' 
TABS,ioos:station:wmo:42044:1,2006-02-08T00:30:00Z,26.1914,-97.0507,2.0,167.7018856,8.075301852,-99999.0,'11133222,11111222,99999999' 
TABS,ioos:station:wmo:42044:1,2006-02-08T01:00:00Z,26.1914,-97.0507,2.0,189.5673398,7.159587977,-99999.0,'11133222,11111222,99999999' 
TABS,ioos:station:wmo:42044:1,2006-02-08T01:30:00Z,26.1914,-97.0507,2.0,222.7358815,4.833311494,-99999.0,'11133222,11111222,99999999' 
TABS,ioos:station:wmo:42044:1,2006-02-08T02:00:00Z,26.1914,-97.0507,2.0,198.1035102,3.829582223,-99999.0,'11133222,11111222,99999999' 
TABS,ioos:station:wmo:42044:1,2006-02-08T02:30:00Z,26.1914,-97.0507,2.0,228.6518986,5.99429729,-99999.0,'11133222,11111222,99999999' 
TABS,ioos:station:wmo:42044:1,2006-02-08T03:00:00Z,26.1914,-97.0507,2.0,247.0406051,3.768527564,-99999.0,'11133222,11111222,99999999' 
TABS,ioos:station:wmo:42044:1,2006-02-08T03:30:00Z,26.1914,-97.0507,2.0,216.4787011,2.052047758,-99999.0,'11133222,11111222,99999999' 
TABS,ioos:station:wmo:42044:1,2006-02-08T04:00:00Z,26.1914,-97.0507,2.0,17.02069627,0.512445119,-99999.0,'11133222,11111222,99999999' 
TABS,ioos:station:wmo:42044:1,2006-02-08T04:30:00Z,26.1914,-97.0507,2.0,308.8117142,1.180677771,-99999.0,'11133222,11111222,99999999' 
TABS,ioos:station:wmo:42044:1,2006-02-08T05:00:00Z,26.1914,-97.0507,2.0,353.5586254,0.6239391,-99999.0,'11133222,11111222,99999999' 
TABS,ioos:station:wmo:42044:1,2006-02-08T05:30:00Z,26.1914,-97.0507,2.0,328.7683739,3.297953911,-99999.0,'11133222,11111222,99999999' 
TABS,ioos:station:wmo:42044:1,2006-02-08T06:00:00Z,26.1914,-97.0507,2.0,0.424614886,2.700074073,-99999.0,'11133222,11111222,99999999' 
TABS,ioos:station:wmo:42044:1,2006-02-08T06:30:00Z,26.1914,-97.0507,2.0,33.85413479,1.938685121,-99999.0,'11133222,11111222,99999999' 
TABS,ioos:station:wmo:42044:1,2006-02-08T07:00:00Z,26.1914,-97.0507,2.0,2.918638355,2.553311575,-99999.0,'11133222,11111222,99999999' 
TABS,ioos:station:wmo:42044:1,2006-02-08T07:30:00Z,26.1914,-97.0507,2.0,358.6908237,5.251371249,-99999.0,'11133222,11111222,99999999' 
TABS,ioos:station:wmo:42044:1,2006-02-08T08:00:00Z,26.1914,-97.0507,2.0,356.3656243,5.521104962,-99999.0,'11133222,11111222,99999999' 
TABS,ioos:station:wmo:42044:1,2006-02-08T08:30:00Z,26.1914,-97.0507,2.0,11.40846113,5.712871432,-99999.0,'11133222,11111222,99999999' 
TABS,ioos:station:wmo:42044:1,2006-02-08T09:00:00Z,26.1914,-97.0507,2.0,14.15258039,4.785237716,-99999.0,'11133222,11111222,99999999' 
TABS,ioos:station:wmo:42044:1,2006-02-08T09:30:00Z,26.1914,-97.0507,2.0,342.4940777,7.413352818,-99999.0,'11133222,11111222,99999999' 
TABS,ioos:station:wmo:42044:1,2006-02-08T10:00:00Z,26.1914,-97.0507,2.0,356.5319893,6.281504597,-99999.0,'11133222,11111222,99999999' 
TABS,ioos:station:wmo:42044:1,2006-02-08T10:30:00Z,26.1914,-97.0507,2.0,327.0215048,6.925965637,-99999.0,'11133222,11111222,99999999' 
TABS,ioos:station:wmo:42044:1,2006-02-08T11:00:00Z,26.1914,-97.0507,2.0,355.0967727,7.487402754,-99999.0,'11133222,11111222,99999999' 
TABS,ioos:station:wmo:42044:1,2006-02-08T11:30:00Z,26.1914,-97.0507,2.0,353.6682433,7.707016284,-99999.0,'11133222,11111222,99999999' 
TABS,ioos:station:wmo:42044:1,2006-02-08T12:00:00Z,26.1914,-97.0507,2.0,356.6116614,9.135972855,-99999.0,'11133222,11111222,99999999' 
TABS,ioos:station:wmo:42044:1,2006-02-08T12:30:00Z,26.1914,-97.0507,2.0,353.6947792,10.9260972,-99999.0,'11111222,11111222,99999999' 
TABS,ioos:station:wmo:42044:1,2006-02-08T13:00:00Z,26.1914,-97.0507,2.0,349.5277213,11.00329042,-99999.0,'11111222,11111222,99999999' 
TABS,ioos:station:wmo:42044:1,2006-02-08T13:30:00Z,26.1914,-97.0507,2.0,355.6766079,9.948311415,-99999.0,'11133222,11111222,99999999' 
TABS,ioos:station:wmo:42044:1,2006-02-08T14:00:00Z,26.1914,-97.0507,2.0,359.3429279,10.46068831,-99999.0,'11111222,11144222,99999999' 
TABS,ioos:station:wmo:42044:1,2006-02-08T14:30:00Z,26.1914,-97.0507,2.0,350.5656062,13.60401779,-99999.0,'11111222,11111222,99999999' 
TABS,ioos:station:wmo:42044:1,2006-02-08T15:00:00Z,26.1914,-97.0507,2.0,348.4530749,12.78884279,-99999.0,'11111222,11111222,99999999' 
TABS,ioos:station:wmo:42044:1,2006-02-08T15:30:00Z,26.1914,-97.0507,2.0,350.9040897,11.5755691,-99999.0,'11111222,11111222,99999999' 
TABS,ioos:station:wmo:42044:1,2006-02-08T16:00:00Z,26.1914,-97.0507,2.0,355.3034819,12.09059965,-99999.0,'11111222,11111222,99999999' 
TABS,ioos:station:wmo:42044:1,2006-02-08T16:30:00Z,26.1914,-97.0507,2.0,344.8055841,11.63681228,-99999.0,'11111222,11111222,99999999' 
TABS,ioos:station:wmo:42044:1,2006-02-08T17:00:00Z,26.1914,-97.0507,2.0,352.4865998,12.61834379,-99999.0,'11111222,11111222,99999999' 